Tracking 31027 objects as of 19-Jul-2025
HD Live streaming from Space Station
objects crossing your sky now

SL-8 R/B

Track SL-8 R/B now!
10-day predictions


NORAD ID: 14760
Int'l Code: 1984-019B
Perigee: 755.3 km
Apogee: 795.7 km
Inclination: 74.0 °
Period: 100.2 minutes
Semi major axis: 7146 km
RCS: 4.2796 m2 (large)
Launch date: February 21, 1984
Source: Commonwealth of Independent States (former USSR) (CIS)
Launch site: PLESETSK MISSILE AND SPACE COMPLEX (PKMTR)

Note: This is a ROCKET BODY
Your satellite tracking list
STARLINK-6351
Track 1 satellite(s)




NASA's NSSDC Master Catalog

Two Line Element Set (TLE):
1 14760U 84019B   25199.46563672  .00000156  00000-0  61166-4 0  9991
2 14760  74.0430 101.8940 0028234 314.3628  45.5212 14.37023761167329
Source of the keplerian elements: AFSPC